Weather History for Tetuan, Morocco

Change the Weather History Date:

Tuesday, November 6, 2012

  Actual Average Record
Temperature  
Mean Temperature 60 °F -  
Max Temperature 64 °F 65 °F 80 °F (1999)
Min Temperature 57 °F 54 °F 50 °F (2005)
Degree Days  
Heating Degree Days 4    
Growing Degree Days 10 (Base 50)    
Moisture  
Dew Point 59 °F    
Average Humidity 94    
Maximum Humidity 100    
Minimum Humidity 90    
Precipitation  
Precipitation 0.16 in - - ()
Sea Level Pressure  
Sea Level Pressure 30.03 in    
Wind  
Wind Speed 5 mph ()    
Max Wind Speed 23 mph    
Max Gust Speed -    
Visibility 3.0 miles    
Events Rain    
Averages and records for this station are not official NWS values.
T = Trace of Precipitation, MM = Missing Value Source: Averaged Metar Reports

Daily Weather History Graph

Daily Weather History Graph

Search for Another Location

Airport:

Trip Planner

Search our weather history database for the weather conditions in past years. The results will help you decide how hot, cold, wet, or windy it might be!

Date:

Astronomy

Nov. 06, 2012 Rise Set
Actual Time 6:48 AM WET 5:21 PM WET
Civil Twilight 6:21 AM WET 5:47 PM WET
Nautical Twilight 5:51 AM WET 6:18 PM WET
Astronomical Twilight 5:21 AM WET 6:48 PM WET
Moon 11:43 PM WET (11/6) 12:34 PM WET (11/6)
Length of Visible Light 11h 26m
Length of Day
10h 32m
Waning Gibbous, 55% of the Moon is Illuminated
Nov 6
Waning Gibbous
Nov 7
Last Quarter
Nov 13
New
Nov 20
First Quarter
Nov 28
Full

Hourly Weather History & Observations

Time (WET) Temp. Dew Point Humidity Pressure Visibility Wind Dir Wind Speed Gust Speed Precip Events Conditions
12:00 AM 58 °F 57 °F 94% 30.05 in 1 mi Calm Calm - -  
12:00 AM 59.0 °F 57.2 °F 94% 30.04 in 1.8 mi Calm Calm - N/A   Unknown
1:00 AM 59.0 °F 57.2 °F 94% 30.04 in 1.5 mi Variable 2.3 mph - N/A   Unknown
2:00 AM 59.0 °F 57.2 °F 94% 30.01 in - NNW 4.6 mph - N/A   Unknown
3:00 AM 58 °F 56 °F 92% 30.02 in 2 mi NNW 4.6 mph - -  
3:00 AM 59.0 °F 57.2 °F 94% 30.01 in - NNW 4.6 mph - N/A   Unknown
4:00 AM 59.0 °F 57.2 °F 94% 29.98 in 4.3 mi Calm Calm - N/A   Unknown
5:00 AM 59.0 °F 57.2 °F 94% 29.98 in 3.7 mi NNW 3.5 mph - N/A   Unknown
6:00 AM 59 °F 57 °F 91% 30.01 in 3 mi NNW 6.9 mph - - Rain Light Rain
6:00 AM 59.0 °F 57.2 °F 94% 30.01 in 3.1 mi NNW 6.9 mph - N/A Rain Light Rain
7:00 AM 59.0 °F 57.2 °F 94% 30.01 in 3.1 mi NNW 8.1 mph - N/A Rain Light Rain
8:00 AM 59.0 °F 57.2 °F 94% 30.01 in 3.1 mi NW 5.8 mph - N/A   Scattered Clouds
9:00 AM 60 °F 58 °F 90% 30.03 in 4 mi NW 3.5 mph - - Rain Light Rain Showers
9:00 AM 59.0 °F 57.2 °F 94% 30.01 in 4.3 mi NW 3.5 mph - N/A   Scattered Clouds
10:00 AM 60.8 °F 59.0 °F 94% 30.04 in 4.3 mi NNW 6.9 mph - N/A   Scattered Clouds
11:00 AM 62.6 °F 60.8 °F 94% 30.04 in 4.3 mi NNW 6.9 mph - N/A   Scattered Clouds
12:00 PM 62 °F 61 °F 94% 30.03 in 4 mi NW 4.6 mph - -   Overcast
12:00 PM 62.6 °F 60.8 °F 94% 30.01 in 4.3 mi NW 4.6 mph - N/A   Scattered Clouds
1:00 PM 60.8 °F 60.8 °F 100% 30.01 in 4.3 mi North 6.9 mph - N/A   Scattered Clouds
2:00 PM 62.6 °F 60.8 °F 94% 30.01 in 3.1 mi NNW 4.6 mph - N/A   Scattered Clouds
3:00 PM 62 °F 61 °F 94% 30.03 in 3 mi NW 4.6 mph - -   Overcast
3:00 PM 62.6 °F 60.8 °F 94% 30.01 in 3.1 mi NW 4.6 mph - N/A   Mostly Cloudy
4:00 PM 62.6 °F 60.8 °F 94% 30.01 in 3.1 mi NW 3.5 mph - N/A   Mostly Cloudy
5:00 PM 62.6 °F 60.8 °F 94% 30.01 in 3.1 mi Variable 2.3 mph - N/A   Mostly Cloudy
6:00 PM 63 °F 61 °F 92% 30.04 in 3 mi ENE 5.8 mph - -   Overcast
6:00 PM 62.6 °F 60.8 °F 94% 30.04 in 3.1 mi ENE 5.8 mph - N/A   Mostly Cloudy
7:00 PM 64.4 °F 62.6 °F 94% 30.04 in 3.1 mi East 10.4 mph - N/A   Mostly Cloudy
8:00 PM 64.4 °F 62.6 °F 94% 30.04 in 3.1 mi ESE 19.6 mph - N/A Rain Light Rain
9:00 PM 64 °F 62 °F 91% 30.08 in 1 mi East 19.6 mph - - Rain Rain
9:00 PM 64.4 °F 62.6 °F 94% 30.06 in 1.2 mi East 19.6 mph - N/A Rain Light Rain
10:00 PM 64.4 °F 62.6 °F 94% 30.06 in 1.4 mi ESE 19.6 mph - N/A   Unknown
11:00 PM 62.6 °F 62.6 °F 100% 30.06 in 1.4 mi East 23.0 mph - N/A   Unknown